www.pogodaiklimat.ru

Погода и климат >> Архив погоды >> Мексика >> Пуэрто-Анхель


ПОГОДА в Пуэрто-Анхеле

  • Прогноз погоды в Пуэрто-Анхеле
  • Монитор погоды в Пуэрто-Анхеле

АРХИВ ПОГОДЫ в Пуэрто-Анхеле

Время (UTC), дата Ветер
(напр.,м/с)
 
Видим.   Явления Облачность Т
(С)
Тd
(С)
f
(%)
Тe
(С)
Тes
(С)
Комфортность P
(гПа)
Po
(гПа)
Тmin
(С)
Tmax
(С)
R
(мм)
R24
(мм)
S
(см)
21 19.03 Ю 2 30 км 1/1 600 м
[Cu med, cong]
+31.4 +23.5 63 +42 +54 опасность
перегрева
1013.8 1008.9
00 20.03 Ю 2 30 км 4/1 600 м
[Cu med, cong Ac As]
+29.0 +22.6 68 +38 +38 очень
душно
1013.0 1008.1 +23.2 +32.6
03 20.03 З 2 20 км 1/0
[Ac trans]
+27.6 +22.6 74 +36 +36 очень
душно
1014.1 1009.2
06 20.03 С 2 20 км 8/0
[Ac und]
+26.0 +22.7 82 +34 +34 очень
душно
1015.2 1010.3 +32.6
09 20.03 С 2 20 км 3/1 600 м
[Cu med, cong Ac und]
+25.4 +21.4 79 +32 +32 очень
душно
1014.1 1009.2
12 20.03 С 3 20 км 4/0
[Ac und]
+24.6 +19.7 74 +30 +30 очень
душно
1014.2 1009.2 +23.4 +32.6
15 20.03 Ю 1 30 км ясно +28.6 +20.7 62 +35 +45 очень
душно
1015.3 1010.4
18 20.03 ЮВ 2 30 км 1/1 600 м
[Cu med, cong]
+31.2 +23.3 63 +42 +60 опасность
перегрева
1015.3 1010.4 +23.4 +33.0
21 20.03 Ю 2 30 км 1/1 600 м
[Cu med, cong]
+32.4 +24.6 64 +45 +57 опасность
перегрева
1013.2 1008.3
00 21.03 Ю 2 30 км 4/1 600 м
[Cu med, cong Ac As]
+30.0 +23.1 67 +40 +40 очень
душно
1012.7 1007.8 +23.4 +33.6
03 21.03 В 1 30 км 5/4 600 м
[Cb calv Ac und Cc]
+28.4 +23.2 73 +38 +38 очень
душно
1013.1 1008.3
12 21.03 СВ 1 30 км 5/1 600 м
[Cu med, cong Ac trans]
+24.6 +21.8 84 +31 +31 очень
душно
1012.7 1007.8 +23.8 +33.6
15 21.03 ЮВ 1 30 км 3/1 600 м
[Cu med, cong Cs]
+28.8 +22.7 70 +38 +46 очень
душно
1013.9 1009.0
18 21.03 ЮВ 1 30 км 5/1 600 м
[Cu med, cong Cs]
+30.8 +23.1 64 +41 +61 опасность
перегрева
1015.1 1010.2 +23.8 +32.4
21 21.03 ЮВ 1 30 км 9/1 600 м
[Cu med, cong Ac und Cs]
+32.8 +23.6 59 +44 +52 опасность
перегрева
1013.4 1008.5
00 22.03 ЮЗ 1 30 км 9/1 600 м
[Cu med, cong Ac und Cs]
+30.0 +24.0 70 +41 +42 опасность
перегрева
1012.7 1007.9 +23.8 +33.6
03 22.03 З 3 20 км 9/0
[Ac und Cs]
+28.6 +22.8 71 +38 +38 очень
душно
1014.1 1009.2
06 22.03 С 2 20 км 9/1 600 м
[Cu med, cong Ac und]
+27.6 +23.2 77 +37 +37 очень
душно
1014.9 1010.0 +33.6
09 22.03 С 2 20 км 8/0
[Ac und]
+26.8 +22.3 76 +35 +35 очень
душно
1013.8 1008.9
12 22.03 СВ 2 20 км 6/0
[Ac und]
+27.0 +22.8 78 +36 +36 очень
душно
1013.9 1009.0 +25.0 +33.6
15 22.03 СВ 2 30 км 6/1 600 м
[Cu med, cong Ac As Cs]
+29.4 +24.2 74 +41 +46 опасность
перегрева
1015.7 1010.8
18 22.03 ЮЗ 2 30 км 4/1 600 м
[Cu med, cong Ac As Cs]
+31.2 +23.6 64 +42 +58 опасность
перегрева
1015.5 1010.6 +25.0 +31.4
21 22.03 ЮЗ 2 30 км 5/1 600 м
[Cu med, cong Ac As Cs]
+31.6 +23.7 63 +43 +52 опасность
перегрева
1013.0 1008.1
00 23.03 С 3 30 км 10/1 600 м
[Cu med, cong Ac As Cs]
+28.4 +21.7 67 +36 +36 очень
душно
1012.9 1008.0 +25.0 +32.8
03 23.03 ЮЗ 2 30 км 3/0
[Cs]
+27.2 +22.5 76 +36 +36 очень
душно
1014.1 1009.2
06 23.03 СЗ 3 30 км 5/1 600 м
[Cu med, cong Cs]
+26.4 +21.9 76 +34 +34 очень
душно
1015.1 1010.2 +32.8
09 23.03 С 2 30 км 3/0
[Cs]
+26.4 +20.7 71 +33 +33 очень
душно
1013.9 1009.0
12 23.03 С 3 20 км ясно +24.0 +18.1 70 +28 +28 душно 1014.3 1009.3 +23.2 +32.8
15 23.03 В 1 30 км ясно +29.0 +20.5 60 +36 +45 очень
душно
1015.8 1010.9
18 23.03 ЮВ 2 30 км 1/1 600 м
[Cu med, cong]
+32.8 +24.5 62 +46 +64 опасность
перегрева
1016.2 1011.3 +23.2 +34.0
21 23.03 Ю 2 30 км 5/3 600 м
[Cu med, cong Ac As]
+32.0 +24.5 65 +45 +52 опасность
перегрева
1014.1 1009.2
00 24.03 ЮЗ 2 30 км 3/1 600 м
[Cu med, cong Ac As]
+29.4 +24.8 76 +42 +42 опасность
перегрева
1013.3 1008.4 +23.2 +34.0
03 24.03 С 4 20 км {морось} 10/5 600 м
[Cb cap As op]
+25.4 +21.1 77 +32 +32 очень
душно
1015.1 1010.2 0.6
06 24.03 С 3 20 км 5/0
[Ac und]
+25.0 +21.3 80 +32 +32 очень
душно
1015.8 1010.9 +34.0
12 24.03 С 2 20 км ясно +23.6 +18.9 75 +28 +28 душно 1014.7 1009.7 +22.6 +34.0
15 24.03 Ю 1 20 км ясно +29.0 +22.0 66 +37 +47 очень
душно
1016.2 1011.2
18 24.03 Ю 3 20 км 1/1 600 м
[Cu med, cong]
+31.6 +23.7 63 +43 +58 опасность
перегрева
1016.4 1011.4 +22.6 +32.0
12 25.03 С 1 30 км ясно +25.0 +23.1 89 +33 +33 очень
душно
1013.1 1008.1 +23.4 +32.8
15 25.03 ЮВ 1 30 км ясно +29.6 +22.7 66 +39 +49 очень
душно
1014.1 1009.2
18 25.03 ЮВ 1 30 км 4/1 600 м
[Cu med, cong Cs]
+31.2 +23.9 65 +43 +63 опасность
перегрева
1015.3 1010.4 +23.4 +32.0
21 25.03 Ю 1 30 км 3/1 600 м
[Cu med, cong Cs]
+32.0 +25.3 68 +46 +59 опасность
перегрева
1014.1 1009.2
00 26.03 ЮЗ 1 30 км ясно +31.6 +23.1 61 +42 +42 опасность
перегрева
1012.3 1007.4 +23.4 +33.4
12 26.03 С 1 30 км ясно +24.8 +19.6 73 +30 +30 душно 1013.1 1008.2 +22.4 +33.4
15 26.03 В 1 30 км ясно +28.4 +21.7 67 +36 +46 очень
душно
1014.0 1009.1
18 26.03 ЮВ 1 30 км 1/1 600 м
[Cu med, cong]
+30.8 +22.2 60 +40 +62 опасность
солнечного
удара
1015.2 1010.2 +22.4 +32.0

 

Местоположение метеостанции Пуэрто-Анхель (Мексика): широта 15.68 долгота -96.48 высота над уровнем моря 46 м.

В архиве по умолчанию представлена погода в Пуэрто-Анхеле за последнюю неделю. Архивные данные за месяц целиком и за предыдущие месяцы, начиная с января 2011 года, Вы можете получить, выбрав интересующий диапазон дат из раскрывающегося списка и нажав кнопку "Ввод!".


*Определитесь, кто Вы:
робот инопланетянин человек

Внимание! Время в таблицах - всемирное. Для получения местного времени необходимо прибавить поправку, которая равна -6 ч.

Смотрите также архив погоды в соседних городах и на ближайших метеорологических станциях:

Погода в Салина-Крусе (Мексика) (149 км)
Погода в Оахаке (Мексика) (154 км)
Погода в Уахуапан-де-Леоне (Мексика) (273 км)
Погода в Арриаге (Мексика) (283 км)
Погода в Коацакоалькосе (Мексика) (350 км)
Погода в Оризабе (Мексика) (359 км)
Погода в Кордове (Мексика) (361 км)
Погода в Тустла-Гутьерресе (Мексика) (377 км)
Погода в Чильпансинго (Мексика) (383 км)
Погода в Веракрусе (Мексика) (388 км)

Пояснения к столбцам:

Ветер - указаны скорость ветра в м/с - средняя за 10 мин, порывы в срок и между сроками (в фигурных скобках) и направление, откуда дует ветер: С - северный, СВ - северо-восточный, В - восточный, ЮВ - юго-восточный, Ю - южный, ЮЗ - юго-западный, З - западный, СЗ - северо-западный.
Видимость - горизонтальная дальность видимости в метрах или километрах. При видимости от 1 до 10 км при отсутствии осадков обычно наблюдается дымка, при ухудшении видимости до 1 км и менее - туман. В сухую погоду видимость может ухудшаться дымом, пылью или мглою.
Явления - указаны атмосферные явления, наблюдавшиеся в срок или в последний час перед сроком; фигурными скобками обозначены явления, наблюдавшиеся между сроками (за 1-3 часа до срока); квадратными скобками обозначены град или гололедные отложения с указанием их диаметра в мм.
Облачность - указаны через наклонную черту общая и нижняя облачность в баллах и высота нижней границы облаков в метрах; квадратными скобками обозначены формы облаков: Ci - перистые, Cs - перисто-слоистые, Cc - перисто-кучевые, Ac - высококучевые, As - высокослоистые, Sc - слоисто-кучевые, Ns - слоисто-дождевые, Cu - кучевые, Cb - кучево-дождевые. Подробнее классификацию облаков см. в Атласе облаков (PDF).
T - Температура воздуха - температура, измеренная на высоте 2 м над землей.
Td - Температура точки росы - температура, при понижении до которой содержащийся в воздухе водяной пар достигнет насыщения.
f - Относительная влажность воздуха - влажноcть воздуха, измеренная на высоте 2 м над землей.
Te - Эффективная температура - температура, которую ощущает одетый по сезону человек в тени. Характеристика душности погоды. При расчете учитывается влияние влажности воздуха и скорости ветра на теплоощущения человека.
Tes - Эффективная температура на солнце - температура, которую ощущает человек, с поправкой на солнечный нагрев. Характеристика знойности погоды. Зависит от высоты солнца над горизонтом, облачности и скорости ветра. Ночью, в пасмурную погоду, а также при ветре 12 м/с и более поправка равна нулю.
P - Атмосферное давление - приведенное к уровню моря атмосферное давление.
Po - Атмосферное давление - измеренное на уровне метеостанции атмосферное давление.
Tmin - Минимальная температура - минимум температуры воздуха на высоте 2 м над землей.
Tmax - Максимальная температура - максимум температуры воздуха на высоте 2 м над землей.
R - Количество осадков - Количество выпавших осадков за период времени, мм. При наведении курсора мыши на число - период времени, за который выпало указанное количество осадков.
R24 - Количество осадков - Количество выпавших осадков за 24 часа, мм.
S - Снежный покров - Высота снежного покрова, см. При наведении курсора мыши на число - состояние снежного покрова и степень покрытия местности в баллах.